Flag for U.S.A. Weather past 2 weeks in Harrisburg, Pennsylvania, U.S.A.

Now
31 °F

Overcast.


Feels Like: 24 °F
Forecast: 25 / 37 °F
Wind: 7 mph from West

Location: Capital City Airport

Current Time: Dec 20, 2014 at 2:23:58 AM

Latest Report: Dec 20, 2014 at 1:56 AM


Visibility: 10 mi

Pressure: 30.24 "Hg

Humidity: 67%

Dew point: 21 °F

Location of HarrisburgLocation

Historic Weather in Harrisburg — Graph

°F

Harrisburg temperature yesterday

Maximum temperature yesterday: 41 °F (at 1:56 PM)
Minimum temperature yesterday: 30 °F (at 10:56 PM)
Average temperature yesterday: 35 °F

Past Weeks' High & Low Weather Summary

 TemperatureHumidityPressure
High49 °F (Dec 17, 11:56 AM)97% (Dec 5, 5:56 PM)30.65 "Hg (Dec 5, 5:56 PM)
Low25 °F (Dec 8, 1:56 AM)24% (Dec 7, 2:56 PM)29.76 "Hg (Dec 11, 4:56 AM)
Average38 °F71%30.12 "Hg
* Reported Dec 5 12:56 AM — Dec 20 12:56 AM, Harrisburg, Weather by CustomWeather, © 2014

Note: Actual official high and low records may vary slightly from our data, if they occured in-between our weather recording intervals... More about our weather records

Advertising

Harrisburg weather history for previous 24 hours

 ConditionsComfort  
Time TempWeatherWind HumidityBarometerVisibility
12:56 AM
Dec 20
30 °FOvercast.6 mph66%30.23 "Hg10 mi
11:56 PM
Dec 19
30 °FClear.6 mph66%30.24 "Hg10 mi
10:56 PM30 °FPassing clouds.5 mph66%30.24 "Hg10 mi
9:56 PM31 °FPassing clouds.7 mph64%30.24 "Hg10 mi
8:56 PM32 °FPassing clouds.6 mph64%30.22 "Hg10 mi
7:56 PM33 °FClear.8 mph61%30.21 "Hg10 mi
6:56 PM34 °FClear.7 mph59%30.19 "Hg10 mi
5:56 PM34 °FPassing clouds.8 mph59%30.19 "Hg10 mi
4:56 PM36 °FClear.8 mph54%30.17 "Hg10 mi
3:56 PM39 °FPassing clouds.8 mph48%30.15 "Hg10 mi
2:56 PM40 °FScattered clouds.12 mph47%30.12 "Hg10 mi
1:56 PM41 °FScattered clouds.13 mph45%30.11 "Hg10 mi
12:56 PM40 °FPartly sunny.14 mph47%30.12 "Hg10 mi
11:56 AM40 °FPartly sunny.12 mph47%30.11 "Hg10 mi
10:56 AM38 °FOvercast.14 mph53%30.13 "Hg10 mi
9:56 AM36 °FOvercast.12 mph62%30.14 "Hg10 mi
8:56 AM36 °FOvercast.8 mph62%30.14 "Hg10 mi
7:56 AM35 °FOvercast.9 mph64%30.11 "Hg10 mi
6:56 AM35 °FOvercast.8 mph64%30.10 "Hg10 mi
5:56 AM35 °FOvercast.10 mph64%30.08 "Hg10 mi
4:56 AM34 °FOvercast.12 mph67%30.08 "Hg10 mi
3:56 AM34 °FOvercast.8 mph67%30.09 "Hg10 mi
2:56 AM34 °FOvercast.10 mph67%30.09 "Hg10 mi
Weather by CustomWeather, © 2014

See weather overviewHow to use our weather pages